Watertown, SD

11:57 AM CDT on June 22, 2017 (GMT -0500)
Watertown Municipal

Weather History for KATY - October, 2013

Change the Weather History Date:

Tuesday, October 1, 2013

  Actual Average Record
Temperature  
Mean Temperature 58 °F 52 °F  
Max Temperature 70 °F 64 °F 91 °F (1951)
Min Temperature 46 °F 40 °F 20 °F (2003)
Degree Days  
Heating Degree Days 7 13  
Month to date heating degree days 7 13  
Since 1 July heating degree days 143 289  
Cooling Degree Days 0 0  
Month to date cooling degree days 0 0  
Year to date cooling degree days 618 513  
Growing Degree Days 8 (Base 50)    
Moisture  
Dew Point 40 °F    
Average Humidity 55    
Maximum Humidity 86    
Minimum Humidity 23    
Precipitation  
Precipitation 0.00 in 0.08 in 1.47 in (2009)
Month to date precipitation 0.00 0.08  
Year to date precipitation 19.94 18.95  
Snow  
Snow 0.00 in - - ()
Month to date snowfall  
Since 1 July snowfall  
Snow Depth -    
Sea Level Pressure  
Sea Level Pressure 29.86 in    
Wind  
Wind Speed 9 mph (West)    
Max Wind Speed 23 mph    
Max Gust Speed 28 mph    
Visibility 10 miles    
Events      
T = Trace of Precipitation, MM = Missing Value Source: NWS Daily Summary

Daily Weather History Graph

Daily Weather History Graph

Search for Another Location

Airport or City:

Trip Planner

Search our weather history database for the weather conditions in past years. The results will help you decide how hot, cold, wet, or windy it might be!

Date:

Astronomy

Oct. 01, 2013 Rise Set
Actual Time 7:26 AM CDT 7:08 PM CDT
Civil Twilight 6:57 AM CDT 7:37 PM CDT
Nautical Twilight 6:23 AM CDT 8:11 PM CDT
Astronomical Twilight 5:49 AM CDT 8:46 PM CDT
Moon 3:54 AM CDT (10/1) 5:18 PM CDT (10/1)
Length of Visible Light 12h 40m
Length of Day
11h 41m
Waning Crescent, 12% of the Moon is Illuminated
Oct 1
Waning Crescent
Oct 4
New
Oct 11
First Quarter
Oct 18
Full
Oct 26
Last Quarter

Hourly Weather History & Observations

Time (CDT) Temp. Dew Point Humidity Pressure Visibility Wind Dir Wind Speed Gust Speed Precip Events Conditions
12:53 AM 70.0 °F 48.9 °F 47% 29.54 in 10.0 mi WSW 15.0 mph - N/A   Clear
1:15 AM 66.2 °F 48.2 °F 52% 29.58 in 10.0 mi NW 19.6 mph 27.6 mph N/A   Clear
1:53 AM 62.1 °F 48.9 °F 62% 29.59 in 10.0 mi NNW 12.7 mph - N/A   Clear
2:53 AM 59.0 °F 48.9 °F 69% 29.65 in 10.0 mi NW 10.4 mph - N/A   Clear
3:53 AM 57.9 °F 46.9 °F 67% 29.69 in 10.0 mi NW 15.0 mph 23.0 mph N/A   Clear
4:53 AM 55.9 °F 45.0 °F 67% 29.73 in 10.0 mi NW 10.4 mph 19.6 mph N/A   Clear
5:53 AM 54.0 °F 43.0 °F 66% 29.79 in 10.0 mi West 8.1 mph - N/A   Clear
6:53 AM 46.9 °F 42.1 °F 83% 29.84 in 10.0 mi West 8.1 mph - N/A   Clear
7:53 AM 46.9 °F 43.0 °F 86% 29.87 in 10.0 mi West 6.9 mph - N/A   Clear
8:53 AM 53.1 °F 44.1 °F 71% 29.89 in 10.0 mi West 9.2 mph - N/A   Clear
9:53 AM 57.9 °F 42.1 °F 56% 29.92 in 10.0 mi West 10.4 mph - N/A   Clear
10:53 AM 61.0 °F 39.9 °F 46% 29.93 in 10.0 mi West 11.5 mph - N/A   Clear
11:53 AM 64.0 °F 37.9 °F 38% 29.92 in 10.0 mi West 10.4 mph 18.4 mph N/A   Clear
12:53 PM 66.0 °F 37.0 °F 34% 29.93 in 10.0 mi WNW 12.7 mph 23.0 mph N/A   Clear
1:53 PM 68.0 °F 34.0 °F 28% 29.93 in 10.0 mi WNW 19.6 mph 24.2 mph N/A   Clear
2:53 PM 69.1 °F 33.1 °F 26% 29.92 in 10.0 mi WNW 16.1 mph 20.7 mph N/A   Clear
3:53 PM 69.1 °F 30.9 °F 24% 29.93 in 10.0 mi West 16.1 mph 20.7 mph N/A   Clear
4:53 PM 69.1 °F 30.9 °F 24% 29.93 in 10.0 mi West 11.5 mph - N/A   Clear
5:53 PM 68.0 °F 34.0 °F 28% 29.94 in 10.0 mi West 9.2 mph - N/A   Clear
6:53 PM 59.0 °F 37.0 °F 44% 29.96 in 10.0 mi WSW 4.6 mph - N/A   Clear
7:53 PM 54.0 °F 37.9 °F 55% 29.98 in 10.0 mi WSW 4.6 mph - N/A   Clear
8:53 PM 51.1 °F 37.9 °F 61% 29.98 in 10.0 mi SSW 4.6 mph - N/A   Clear
9:53 PM 52.0 °F 42.1 °F 69% 29.99 in 10.0 mi Calm Calm - N/A   Clear
10:53 PM 50.0 °F 39.9 °F 68% 30.00 in 10.0 mi Calm Calm - N/A   Clear
11:53 PM 48.0 °F 37.9 °F 68% 30.01 in 10.0 mi Calm Calm - N/A   Clear